When you browse on this site, cookies collect data to enhance your experience and personalize the content and advertising you see.
Visit our Privacy Policy to learn more. By continuing to use the site, you agree to this use of cookies and data.
  • In Hungary
  • List of Countries
  • For 7 days
  • Water Temperature
  • Satellite Maps
  • Weather Map
  • News
  • Weather Widgets
  • user-avatar
    Login

    Hourly Weather Itaperucu

    Today, 19 January, Saturday

    Time Temperature Precipitation Wind Pressure Humidity
    00:00 +19°C° 0.2 mm 0 mps 677 mmHg 91%
    01:00 +19°C° 0 mm 0 mps 676 mmHg 92%
    02:00 +19°C° 0 mm 0 mps 676 mmHg 93%
    03:00 +19°C° 0 mm 0 mps 676 mmHg 93%
    04:00 +18°C° 0 mm 0 mps 676 mmHg 94%
    05:00 +18°C° 0 mm 0 mps 675 mmHg 94%
    06:00 +18°C° 0 mm 0 mps 675 mmHg 94%
    07:00 +22°C° 0 mm 1 mps 676 mmHg 84%
    08:00 +25°C° 0 mm 1 mps 677 mmHg 73%
    09:00 +27°C° 0 mm 2 mps 678 mmHg 63%
    10:00 +28°C° 0.1 mm 2 mps 678 mmHg 59%
    11:00 +30°C° 0.1 mm 2 mps 677 mmHg 55%
    12:00 +31°C° 0.1 mm 2 mps 677 mmHg 51%
    13:00 +31°C° 0.6 mm 2 mps 677 mmHg 52%
    14:00 +31°C° 0.6 mm 1 mps 677 mmHg 53%
    15:00 +31°C° 0.6 mm 1 mps 677 mmHg 54%
    16:00 +29°C° 2.6 mm 1 mps 676 mmHg 66%
    17:00 +27°C° 2.6 mm 1 mps 676 mmHg 79%
    18:00 +24°C° 2.6 mm 1 mps 676 mmHg 91%
    19:00 +23°C° 2 mm 1 mps 676 mmHg 92%
    20:00 +23°C° 2 mm 1 mps 676 mmHg 92%
    21:00 +22°C° 2 mm 1 mps 677 mmHg 93%
    22:00 +21°C° 1.4 mm 1 mps 677 mmHg 94%
    23:00 +21°C° 1.4 mm 1 mps 677 mmHg 95%

    Tomorrow, 20 January, Sunday

    Time Temperature Precipitation Wind Pressure Humidity
    00:00 +21°C° 1.4 mm 1 mps 677 mmHg 96%
    01:00 +21°C° 0 mm 1 mps 677 mmHg 97%
    02:00 +21°C° 0 mm 1 mps 677 mmHg 97%
    03:00 +20°C° 0 mm 1 mps 676 mmHg 98%
    04:00 +20°C° 0 mm 1 mps 676 mmHg 98%
    05:00 +20°C° 0 mm 1 mps 676 mmHg 98%
    06:00 +20°C° 0 mm 1 mps 677 mmHg 97%
    07:00 +21°C° 0.1 mm 1 mps 677 mmHg 95%
    08:00 +21°C° 0.1 mm 1 mps 677 mmHg 92%
    09:00 +22°C° 0.1 mm 1 mps 678 mmHg 89%
    10:00 +23°C° 0.1 mm 1 mps 678 mmHg 82%
    11:00 +25°C° 0.1 mm 2 mps 678 mmHg 74%
    12:00 +26°C° 0.1 mm 2 mps 678 mmHg 67%
    13:00 +26°C° 0.8 mm 2 mps 678 mmHg 72%
    14:00 +26°C° 0.8 mm 1 mps 678 mmHg 78%
    15:00 +26°C° 0.8 mm 1 mps 677 mmHg 83%
    16:00 +25°C° 1.2 mm 1 mps 677 mmHg 87%
    17:00 +24°C° 1.2 mm 1 mps 677 mmHg 90%
    18:00 +23°C° 1.2 mm 1 mps 677 mmHg 94%
    19:00 +23°C° 0.5 mm 1 mps 677 mmHg 95%
    20:00 +22°C° 0.5 mm 1 mps 677 mmHg 96%
    21:00 +21°C° 0.5 mm 1 mps 678 mmHg 97%
    22:00 +21°C° 0.2 mm 1 mps 678 mmHg 97%
    23:00 +21°C° 0.2 mm 1 mps 678 mmHg 97%

    Day after tomorrow, 21 January, Monday

    Time Temperature Precipitation Wind Pressure Humidity
    00:00 +21°C° 0.2 mm 1 mps 678 mmHg 98%
    01:00 +20°C° 0 mm 1 mps 677 mmHg 98%
    02:00 +20°C° 0 mm 1 mps 677 mmHg 98%
    03:00 +20°C° 0 mm 1 mps 676 mmHg 98%
    04:00 +20°C° 0 mm 1 mps 676 mmHg 98%
    05:00 +20°C° 0 mm 1 mps 677 mmHg 98%
    06:00 +20°C° 0 mm 1 mps 677 mmHg 97%
    07:00 +22°C° 0 mm 1 mps 677 mmHg 91%
    08:00 +23°C° 0 mm 1 mps 678 mmHg 84%
    09:00 +25°C° 0 mm 1 mps 679 mmHg 78%
    10:00 +27°C° 0.1 mm 2 mps 679 mmHg 70%
    11:00 +29°C° 0.1 mm 2 mps 679 mmHg 62%
    12:00 +31°C° 0.1 mm 2 mps 679 mmHg 54%
    13:00 +31°C° 0.9 mm 2 mps 679 mmHg 57%
    14:00 +31°C° 0.9 mm 2 mps 678 mmHg 60%
    15:00 +31°C° 0.9 mm 1 mps 677 mmHg 63%
    16:00 +29°C° 0.5 mm 1 mps 677 mmHg 68%
    17:00 +28°C° 0.5 mm 1 mps 677 mmHg 73%
    18:00 +27°C° 0.5 mm 1 mps 677 mmHg 77%
    19:00 +26°C° 1 mm 1 mps 677 mmHg 82%
    20:00 +24°C° 1 mm 1 mps 677 mmHg 87%
    21:00 +20°C° 1 mm 0 mps 678 mmHg 92%
    22:00 +20°C° 0.1 mm 0 mps 678 mmHg 93%
    23:00 +20°C° 0.1 mm 0 mps 678 mmHg 94%

    22 January, Tuesday

    Time Temperature Precipitation Wind Pressure Humidity
    00:00 +20°C° 0.1 mm 0 mps 678 mmHg 95%
    01:00 +19°C° 0 mm 0 mps 677 mmHg 95%
    02:00 +19°C° 0 mm 0 mps 677 mmHg 96%
    03:00 +19°C° 0 mm 0 mps 676 mmHg 96%
    04:00 +19°C° 0 mm 0 mps 677 mmHg 97%
    05:00 +19°C° 0 mm 0 mps 677 mmHg 97%
    06:00 +18°C° 0 mm 0 mps 677 mmHg 97%
    07:00 +21°C° 0 mm 0 mps 678 mmHg 87%
    08:00 +23°C° 0 mm 0 mps 679 mmHg 77%
    09:00 +26°C° 0 mm 0 mps 680 mmHg 67%
    10:00 +28°C° 0.1 mm 0 mps 680 mmHg 59%
    11:00 +32°C° 0.1 mm 1 mps 680 mmHg 52%
    12:00 +34°C° 0.1 mm 1 mps 680 mmHg 44%
    13:00 +33°C° 0.4 mm 1 mps 679 mmHg 50%
    14:00 +32°C° 0.4 mm 1 mps 678 mmHg 55%
    15:00 +30°C° 0.4 mm 1 mps 678 mmHg 61%
    16:00 +29°C° 1.1 mm 1 mps 677 mmHg 68%
    17:00 +28°C° 1.1 mm 1 mps 677 mmHg 75%
    18:00 +26°C° 1.1 mm 1 mps 677 mmHg 82%
    19:00 +25°C° 0.2 mm 1 mps 677 mmHg 85%
    20:00 +24°C° 0.2 mm 1 mps 677 mmHg 88%
    21:00 +23°C° 0.2 mm 1 mps 678 mmHg 92%
    22:00 +22°C° 0 mm 1 mps 678 mmHg 93%
    23:00 +22°C° 0 mm 1 mps 678 mmHg 94%

    23 January, Wednesday

    Time Temperature Precipitation Wind Pressure Humidity
    00:00 +22°C° 0 mm 1 mps 678 mmHg 96%
    01:00 +19°C° 0 mm 0 mps 678 mmHg 96%
    02:00 +19°C° 0 mm 0 mps 677 mmHg 96%
    03:00 +19°C° 0 mm 0 mps 677 mmHg 97%
    04:00 +19°C° 0 mm 0 mps 677 mmHg 96%
    05:00 +19°C° 0 mm 0 mps 677 mmHg 96%
    06:00 +19°C° 0 mm 0 mps 677 mmHg 96%
    07:00 +21°C° 0 mm 0 mps 678 mmHg 84%
    08:00 +24°C° 0 mm 0 mps 679 mmHg 73%
    09:00 +27°C° 0 mm 0 mps 680 mmHg 61%
    10:00 +28°C° 0.3 mm 0 mps 680 mmHg 60%
    11:00 +30°C° 0.3 mm 0 mps 680 mmHg 58%
    12:00 +31°C° 0.3 mm 0 mps 680 mmHg 57%
    13:00 +31°C° 0.7 mm 0 mps 679 mmHg 55%
    14:00 +31°C° 0.7 mm 0 mps 678 mmHg 53%
    15:00 +30°C° 0.7 mm 0 mps 678 mmHg 51%
    16:00 +31°C° 1.5 mm 1 mps 677 mmHg 59%
    17:00 +29°C° 1.5 mm 1 mps 677 mmHg 67%
    18:00 +28°C° 1.5 mm 1 mps 677 mmHg 75%
    19:00 +26°C° 1.1 mm 1 mps 677 mmHg 80%
    20:00 +23°C° 1.1 mm 0 mps 677 mmHg 84%
    21:00 +21°C° 1.1 mm 0 mps 677 mmHg 88%
    22:00 +21°C° 0.1 mm 0 mps 677 mmHg 89%
    23:00 +21°C° 0.1 mm 0 mps 677 mmHg 90%

    24 January, Thursday

    Time Temperature Precipitation Wind Pressure Humidity
    00:00 +20°C° 0.1 mm 0 mps 677 mmHg 91%
    01:00 +20°C° 0 mm 0 mps 676 mmHg 92%
    02:00 +20°C° 0 mm 0 mps 676 mmHg 93%
    03:00 +20°C° 0 mm 0 mps 675 mmHg 94%
    04:00 +19°C° 0 mm 0 mps 676 mmHg 94%
    05:00 +19°C° 0 mm 0 mps 676 mmHg 94%
    06:00 +19°C° 0 mm 0 mps 676 mmHg 94%
    07:00 +21°C° 0 mm 0 mps 677 mmHg 86%
    08:00 +23°C° 0 mm 0 mps 677 mmHg 77%
    09:00 +25°C° 0 mm 0 mps 678 mmHg 69%
    10:00 +27°C° 0 mm 0 mps 678 mmHg 59%
    11:00 +30°C° 0 mm 0 mps 678 mmHg 49%
    12:00 +32°C° 0 mm 0 mps 679 mmHg 40%
    13:00 +33°C° 0.4 mm 1 mps 678 mmHg 46%
    14:00 +31°C° 0.4 mm 1 mps 677 mmHg 53%
    15:00 +29°C° 0.4 mm 1 mps 676 mmHg 60%
    16:00 +28°C° 2 mm 2 mps 676 mmHg 67%
    17:00 +26°C° 2 mm 2 mps 676 mmHg 74%
    18:00 +24°C° 2 mm 2 mps 676 mmHg 81%
    19:00 +24°C° 0.8 mm 2 mps 676 mmHg 85%
    20:00 +23°C° 0.8 mm 2 mps 677 mmHg 88%
    21:00 +22°C° 0.8 mm 1 mps 677 mmHg 92%
    22:00 +21°C° 0.6 mm 1 mps 677 mmHg 93%
    23:00 +21°C° 0.6 mm 1 mps 677 mmHg 95%
    Show more